Location: Boston
(42.3580°N, 71.0600°W)
Time: 05:11:41
(UTC-04:00)

ISS - Pass Details

Date: 16 October 2017
Orbit: 401 x 408 km, 51.6° (Epoch: 19 October)

Event Time Altitude Azimuth Distance (km) Brightness Sun altitude
Rises 19:18:51 0° 290° (WNW) 2,323 1.5 -15.3°
Reaches altitude 10° 19:21:30 10° 267° (W) 1,460 0.4 -15.8°
Maximum altitude 19:23:33 16° 228° (SW) 1,162 -0.9 -16.1°
Drops below altitude 10° 19:25:37 10° 189° (S) 1,456 -0.9 -16.5°
Enters shadow 19:27:31 - 170° (S) 2,050 -0.4 -16.9°
